East Haven, CT

6:35 AM EST on February 26, 2017 (GMT -0500)
Tweed-New Haven

Weather History for KHVN - April, 2014

Change the Weather History Date:

Friday, April 18, 2014

  Actual Average Record
Temperature  
Mean Temperature 38 °F -  
Max Temperature 46 °F 57 °F 86 °F (2002)
Min Temperature 30 °F 40 °F 30 °F (2014)
Degree Days  
Heating Degree Days 28    
Moisture  
Dew Point 29 °F    
Average Humidity 67    
Maximum Humidity 76    
Minimum Humidity 60    
Precipitation  
Precipitation 0.00 in - - ()
Sea Level Pressure  
Sea Level Pressure 30.46 in    
Wind  
Wind Speed 6 mph (ENE)    
Max Wind Speed 13 mph    
Max Gust Speed 21 mph    
Visibility 10 miles    
Events      
Averages and records for this station are not official NWS values.
T = Trace of Precipitation, MM = Missing Value Source: NWS Daily Summary

Daily Weather History Graph

Daily Weather History Graph

Search for Another Location

Airport or City:

Trip Planner

Search our weather history database for the weather conditions in past years. The results will help you decide how hot, cold, wet, or windy it might be!

Date:

Astronomy

Apr. 18, 2014 Rise Set
Actual Time 6:07 AM EDT 7:34 PM EDT
Civil Twilight 5:38 AM EDT 8:03 PM EDT
Nautical Twilight 5:04 AM EDT 8:38 PM EDT
Astronomical Twilight 4:27 AM EDT 9:15 PM EDT
Moon 11:18 PM EDT (4/18) 8:25 AM EDT (4/18)
Length of Visible Light 14h 25m
Length of Day
13h 27m
Waning Gibbous, 87% of the Moon is Illuminated
Apr 18
Waning Gibbous
Apr 22
Last Quarter
Apr 29
New
May 6
First Quarter
May 14
Full

Hourly Weather History & Observations

Time (EDT) Temp. Windchill Dew Point Humidity Pressure Visibility Wind Dir Wind Speed Gust Speed Precip Events Conditions
12:53 AM 34.0 °F 31.0 °F 24.1 °F 67% 30.61 in 10.0 mi NNE 3.5 mph - N/A   Clear
1:53 AM 32.0 °F 26.4 °F 23.0 °F 69% 30.61 in 10.0 mi North 5.8 mph - N/A   Clear
2:53 AM 30.9 °F 25.2 °F 23.0 °F 72% 30.61 in 10.0 mi North 5.8 mph - N/A   Clear
3:23 AM 32.0 °F 26.4 °F 24.8 °F 75% 30.60 in 10.0 mi NE 5.8 mph - N/A   Mostly Cloudy
3:53 AM 32.0 °F 24.2 °F 25.0 °F 75% 30.59 in 10.0 mi NNE 9.2 mph - N/A   Overcast
4:53 AM 33.1 °F 24.4 °F 25.0 °F 72% 30.55 in 10.0 mi NNE 11.5 mph - N/A   Overcast
5:53 AM 32.0 °F 24.2 °F 25.0 °F 75% 30.53 in 10.0 mi North 9.2 mph - N/A   Mostly Cloudy
6:53 AM 33.1 °F 26.9 °F 26.1 °F 75% 30.53 in 10.0 mi North 6.9 mph - N/A   Mostly Cloudy
7:53 AM 35.1 °F 28.6 °F 27.0 °F 72% 30.56 in 10.0 mi North 8.1 mph - N/A   Mostly Cloudy
8:53 AM 37.9 °F 32.7 °F 28.0 °F 68% 30.56 in 10.0 mi NNE 6.9 mph - N/A   Mostly Cloudy
9:53 AM 39.9 °F 34.5 °F 28.0 °F 63% 30.55 in 10.0 mi East 8.1 mph - N/A   Overcast
10:53 AM 42.1 °F 37.1 °F 30.0 °F 62% 30.51 in 10.0 mi ESE 8.1 mph - N/A   Overcast
11:53 AM 43.0 °F 36.4 °F 30.0 °F 60% 30.48 in 10.0 mi SE 12.7 mph 20.7 mph N/A   Overcast
12:53 PM 44.1 °F 37.7 °F 30.9 °F 60% 30.48 in 10.0 mi SSE 12.7 mph 19.6 mph N/A   Overcast
1:53 PM 44.1 °F 39.5 °F 30.9 °F 60% 30.45 in 10.0 mi SSE 8.1 mph - N/A   Overcast
2:53 PM 44.1 °F 40.1 °F 30.9 °F 60% 30.43 in 10.0 mi SSE 6.9 mph - N/A   Overcast
3:53 PM 44.1 °F 40.8 °F 30.9 °F 60% 30.39 in 10.0 mi SSW 5.8 mph - N/A   Clear
4:53 PM 45.0 °F - 32.0 °F 60% 30.36 in 10.0 mi Calm Calm - N/A   Clear
5:53 PM 44.1 °F 40.8 °F 32.0 °F 63% 30.35 in 10.0 mi SW 5.8 mph - N/A   Clear
6:53 PM 43.0 °F - 32.0 °F 65% 30.33 in 10.0 mi Calm Calm - N/A   Clear
7:53 PM 42.8 °F - 32.0 °F 66% 30.29 in 10.0 mi Calm Calm - N/A   Clear
8:53 PM 44.1 °F 42.5 °F 34.0 °F 68% 30.30 in 10.0 mi West 3.5 mph - N/A   Clear
9:53 PM 44.1 °F 42.5 °F 34.0 °F 68% 30.31 in 10.0 mi SSW 3.5 mph - N/A   Clear
10:53 PM 42.8 °F 40.1 °F 35.6 °F 76% 30.28 in 10.0 mi SSW 4.6 mph - N/A   Clear
11:53 PM 42.1 °F - 35.1 °F 76% 30.26 in 10.0 mi Calm Calm - N/A   Clear